Regional Weather Roundup
Issued by NWS

Home | Current Version | Previous Version | Graphics & Text | Print | Product List | Glossary On
Versions: 1 2 3 4 5 6 7 8 9 10 11 12 13 14 15 16 17 18 19 20 21 22 23 24 25 26 27 28 29 30 31 32 33 34 35 36 37 38 39 40 41 42 43 44 45 46 47 48 49 50
000
ASUS43 KDMX 240006
RWRIA

WEATHER ROUNDUP FOR IOWA
NATIONAL WEATHER SERVICE DES MOINES IA
700 PM CDT SAT SEP 23 2017

NOTE: "FAIR" INDICATES FEW OR NO CLOUDS BELOW 12,000 FEET WITH NO
SIGNIFICANT WEATHER AND/OR OBSTRUCTIONS TO VISIBILITY.

* - THESE STATIONS ARE NOT NWS STATIONS...THUS NOT UNDER NWS
QUALITY CONTROL.  THEY ALSO DO NOT REPORT WEATHER SUCH
AS PRECIPITATION OR FOG.

IAZ001>003-012>014-020>022-031>034-043>046-240100-
   NORTHWEST IOWA

CITY           SKY/WX    TMP DP  RH WIND       PRES   REMARKS
CARROLL *      CLEAR     84  63  48 S9        29.93R HX  85
CHEROKEE *     PTCLDY    82  65  57 SE7       29.90R HX  83
DENISON *      CLEAR     82  64  54 S10       29.93R HX  84
LE MARS *      PTCLDY    82  66  57 SE8       29.87S HX  85
ORANGE CITY *  CLOUDY    82  66  57 S6        29.89S HX  85
SHELDON *      CLOUDY    81  66  61 S7G15     29.88R HX  83
SIOUX CITY     CLOUDY    84  67  56 SE9       29.86R HX  86
6HR MIN TEMP:  84; 6HR MAX TEMP:  88;

SPENCER        CLOUDY    82  64  54 S12       29.91R HX  83
6HR MIN TEMP:  82; 6HR MAX TEMP:  89;

STORM LAKE *   PTCLDY    82  64  54 S9        29.92S HX  84
$$

IAZ055>058-069>071-079>083-090>094-240100-
   SOUTHWEST IOWA

CITY           SKY/WX    TMP DP  RH WIND       PRES   REMARKS
ATLANTIC *     CLEAR     84  63  48 S9        29.93R HX  85
AUDUBON *      CLEAR     81  64  57 CALM      29.95R HX  82
CLARINDA *     CLEAR     84  64  51 S8        29.95R HX  86
COUNCIL BLFS * CLEAR     84  63  48 S13       29.91R HX  85
CRESTON *      CLEAR     82  63  51 S7        29.97R HX  83
HARLAN  *      CLEAR     84  63  48 S9        29.96R HX  85
LAMONI         CLEAR     84  65  52 SE5       29.96R HX  86
6HR MIN TEMP:  84; 6HR MAX TEMP:  91;

RED OAK *      CLEAR     86  64  48 S9G15     29.93R HX  87
SHENANDOAH *   CLEAR     84  64  51 S9        29.93R HX  86
$$

IAZ047>049-059>061-072>074-084-240100-
   CENTRAL IOWA

CITY           SKY/WX    TMP DP  RH WIND       PRES   REMARKS
AMES           CLEAR     83  66  56 S8        29.94S HX  85
6HR MIN TEMP:  83; 6HR MAX TEMP:  90;

ANKENY *       CLEAR     82  66  57 SE5       29.95S HX  85
BOONE *        CLEAR     84  64  51 SE7       29.95R HX  86
CHARITON *     CLEAR     82  66  57 SE6       29.96S HX  85
DES MOINES     MOCLDY    86  64  47 SE8       29.94R HX  87
6HR MIN TEMP:  86; 6HR MAX TEMP:  92;

GRINNELL*      CLEAR     82  63  51 S3        29.98S HX  83
KNOXVILLE *    CLEAR     84  64  51 SE6       29.95S HX  86
MARSHALLTOWN   CLEAR     85  64  49 S7        29.95S HX  86
6HR MIN TEMP:  84; 6HR MAX TEMP:  92;

NEWTON *       CLEAR     82  64  54 S6        29.96S HX  84
PELLA *        CLEAR     85  63  47 SE3       29.97S HX  86
PERRY *          N/A     85  60  41 SE8       29.94S HX  85
$$

IAZ004>006-015-016-023>025-035-036-240100-
   NORTH CENTRAL IOWA

CITY           SKY/WX    TMP DP  RH WIND       PRES   REMARKS
ALGONA *       PTCLDY    82  64  54 S7        29.93R HX  84
CLARION *      CLEAR     82  64  54 S8        29.95R HX  84
ESTHERVILLE    PTCLDY    79  66  64 S7        29.91S HX  81
6HR MIN TEMP:  79; 6HR MAX TEMP:  87;

FORT DODGE *   CLEAR     85  63  47 SE6       29.94R HX  86
MASON CITY     CLEAR     80  62  54 S9        29.96S HX  81
6HR MIN TEMP:  80; 6HR MAX TEMP:  90;

FOREST CITY *    N/A     81  63  54 S7        29.95S HX  82
WEBSTER CITY * CLEAR     84  63  48 S9        29.93R HX  85
IOWA FALLS *     N/A     84  64  50 S7        29.97S HX  85
$$

IAZ007>011-017>019-026>030-037>042-050>054-066-240100-
   NORTHEAST IOWA

CITY           SKY/WX    TMP DP  RH WIND       PRES   REMARKS
CEDAR RAPIDS   CLEAR     83  63  50 SE7       29.97F HX  84
6HR MIN TEMP:  83; 6HR MAX TEMP:  93;

CHARLES CITY * CLEAR     82  63  51 S6        29.97S HX  83
CLINTON *      CLEAR    N/A N/A N/A SE6       30.01S
DECORAH *      PTCLDY    82  64  54 SE6       29.97F HX  84
DUBUQUE        CLEAR     81  65  58 SE6       30.02S HX  83
6HR MIN TEMP:  81; 6HR MAX TEMP:  89;

MONTICELLO *   CLEAR     82  63  51 SE5       29.99S HX  83
OELWEIN *      CLEAR     82  63  51 SE7       29.99S HX  83
WATERLOO       CLEAR     84  61  45 S7        29.95S HX  84
6HR MIN TEMP:  84; 6HR MAX TEMP:  92;

$$

IAZ064-065-067-068-078-240100-
   EAST CENTRAL IOWA

CITY           SKY/WX    TMP DP  RH WIND       PRES   REMARKS
DAVENPORT      CLEAR     82  65  56 SE6       30.01S HX  84
6HR MIN TEMP:  82; 6HR MAX TEMP:  92;

IOWA CITY      CLEAR     86  64  47 SE5       29.99S HX  87
6HR MIN TEMP:  86; 6HR MAX TEMP:  95;

MT. PLEASANT * CLEAR     80  62  53 SE6       29.98S HX  82
MUSCATINE *    CLEAR     86  64  48 SE6       29.98S HX  87
QUAD CITIES    CLEAR     82  68  62 SE6       29.99S HX  85
6HR MIN TEMP:  82; 6HR MAX TEMP:  94;

$$

IAZ062-063-075>077-085>089-095>099-240100-
   SOUTHEAST IOWA

CITY           SKY/WX    TMP DP  RH WIND       PRES   REMARKS
BURLINGTON     CLEAR     85  65  51 SE5       29.99R HX  86
6HR MIN TEMP:  85; 6HR MAX TEMP:  93;

FAIRFIELD *    CLEAR     82  61  47 SE6       29.96F HX  83
FORT MADISON * CLEAR     86  64  48 SE6       30.00S HX  87
KEOKUK *       CLEAR     86  64  48 SE7       29.98R HX  87
OSKALOOSA *      N/A     83  62  49 SE5       29.97S HX  84
OTTUMWA        CLEAR     81  65  58 SE6       29.96S HX  83
6HR MIN TEMP:  81; 6HR MAX TEMP:  92;

WASHINGTON *   CLEAR     82  64  54 SE7       29.99S HX  84
$$

ABBREVIATIONS USED IN REMARKS
   TC - TEMPERATURES IN CELSIUS
  WCI - WIND CHILL INDEX
   HX - HEAT INDEX
  VSB - VISIBILITY
$$





USA.gov is the U.S. government's official web portal to all federal, state and local government web resources and services.